This is the latest recevied weather packets stored in our database for station/object EA5DFV. If no packets are shown the sender has not sent any weather packets the latest 10 day(s).
| Time | Temp. | Humidity | Pressure | Rain* | Wind** | Luminosity | Snow |
|---|---|---|---|---|---|---|---|
| 1777619914 | 18.89° C | 82% | 1018.9 hPa | 0 mm | - | 32 W/m² | - |
| 1777619604 | 18.89° C | 82% | 1018.7 hPa | 0 mm | - | 54 W/m² | - |
| 1777619314 | 18.89° C | 82% | 1018.6 hPa | 0 mm | - | 70 W/m² | - |
| 1777619009 | 18.89° C | 82% | 1018.2 hPa | 0 mm | - | 77 W/m² | - |
| 1777618705 | 18.89° C | 82% | 1018.3 hPa | 0 mm | - | 91 W/m² | - |
| 1777618415 | 18.89° C | 82% | 1018.3 hPa | 0 mm | - | 118 W/m² | - |
| 1777618112 | 18.89° C | 82% | 1018.5 hPa | 0 mm | - | 111 W/m² | - |
| 1777617805 | 18.33° C | 82% | 1018.5 hPa | 0 mm | - | 114 W/m² | - |
| 1777617516 | 18.33° C | 82% | 1018.5 hPa | 0 mm | - | 113 W/m² | - |
| 1777617206 | 18.33° C | 82% | 1018.5 hPa | 0 mm | - | 114 W/m² | - |
| 1777616903 | 18.33° C | 83% | 1018.5 hPa | 0 mm | - | 105 W/m² | - |
| 1777616614 | 18.33° C | 83% | 1018.5 hPa | 0 mm | - | 93 W/m² | - |
| 1777616306 | 18.33° C | 83% | 1018.4 hPa | 0 mm | - | 79 W/m² | - |
| 1777615997 | 18.33° C | 83% | 1018.4 hPa | 0 mm | - | 54 W/m² | - |
| 1777615714 | 18.33° C | 83% | 1018.4 hPa | 0 mm | - | 26 W/m² | - |
| 1777615405 | 18.33° C | 83% | 1018.4 hPa | 0 mm | - | 19 W/m² | - |
| 1777615098 | 18.33° C | 83% | 1018.4 hPa | 0 mm | - | 12 W/m² | - |
| 1777614812 | 18.33° C | 83% | 1018.4 hPa | 0 mm | - | 11 W/m² | - |
| 1777614502 | 18.33° C | 83% | 1018.3 hPa | 0 mm | - | 9 W/m² | - |
| 1777614213 | 18.33° C | 83% | 1018.3 hPa | 0 mm | - | 9 W/m² | - |
| 1777613907 | 17.78° C | 83% | 1018.3 hPa | 0 mm | - | 11 W/m² | - |
| 1777613600 | 18.33° C | 83% | 1018.1 hPa | 0 mm | - | 7 W/m² | - |
| 1777613314 | 17.78° C | 83% | 1018.1 hPa | 0 mm | - | 5 W/m² | - |
| 1777613007 | 17.78° C | 83% | 1018 hPa | 0 mm | - | 0 W/m² | - |
| 1777612701 | 17.78° C | 83% | 1017.9 hPa | 0 mm | - | 0 W/m² | - |
* Rain latest hour (hover to see other rain measurements)
** Current wind speed in m/s (hover to see current wind gust speed)